Location: Brześć Kujawski
(52.6059°N, 18.8949°E)
Time: 18:04:00
(UTC+01:00)

ISS - Visible Passes

Search period start: 16 January 2019 00:00
Search period end: 26 January 2019 00:00
Orbit: 404 x 407 km, 51.6° (Epoch: 17 January)

Date Brightness Start Highest point End Pass type
(mag) Time Alt. Az. Time Alt. Az. Time Alt. Az.
23 Jan -1.3 18:37:21 10° SSW 18:38:06 14° S 18:38:06 14° S visible
24 Jan -1.6 17:46:29 10° S 17:48:05 13° SE 17:48:29 13° SE visible
24 Jan -0.7 19:20:50 10° SW 19:21:11 12° SW 19:21:11 12° SW visible
25 Jan -2.4 18:29:08 10° SW 18:31:29 29° S 18:31:29 29° S visible
